BEIDOU-3 G1 (PRN 130)

Last updated on Wed Nov 05 2025 00:03:27 GMT+0000 (Coordinated Universal Time)

1 43683U 18085A 25308.62058749 -.00000262 00000+0 00000+0 0 9994 2 43683 2.5088 104.2206 0002482 51.9979 251.4010 1.00274182 25803
UTC large
Height (km)
Speed (km/s)
/
Latitude / Longitude
Inclination (degrees)
Orbital Period (minutes)
Azimuth
Elevation
Range (km)
Doppler Factor

Next 0 passes for location: London (51.5072 / 0.1276)

Sorry there are no passes over London.